STARLINK-33671, 63320

Orbit data source: Space-Track

STARLINK-33671, 63320 is a payload satellite in LEO that was launched on Tue, 18 Mar 2025 UTC via an FALCON 9 launch vehicle from the Air Force Eastern Test Range (AFETR). Payload-class satellites include a variety of spacecraft equipped with specific instruments for various scientific and technological missions. These include communications satellites like Starlink; space stations such as the ISS; scientific satellites like the Hubble; Earth observation satellites from companies like Planet Labs, Umbra, and HawkEye 360; GPS; miniature CubeSats for education and research; and military/defense satellites.

Loading next visibility...
Identifier
63320, 2025-057P
Orbit
LEO
Last TLE update
1 day ago
Origin
Manufacturer
SpaceX/Seattle
Mission
Operational Commercial Communications
Bus & Motor
STARLINK V2MO, Unknown motor
Mass
575 kg wet, ~530 kg dry
Launch date (UTC)
2025-03-18 (2 months ago)
Launch vehicle
FALCON 9
Launch site
Air Force Eastern Test Range (AFETR)
Object type
Payload
Rocket body
Debris
Shape & HBR
Box + 1 Pan, 29 m
Radar Cross Section
41.120 m², Large (>1 m²)

Expand to show TLE details & history

TLE from 1 day ago
0 STARLINK-33671
1 63320U 25057P   25139.63944499 -.00000123  00000-0  43164-5 0  9991
2 63320  43.0006 249.1325 0001544 267.1956  92.8724 15.40696398 10830
Epoch: 2025-05-19T15:20Z
TLE epoch observation values (Epoch: 2025-05-19T15:20:48.047Z)
Latitude
0.00001°
Longitude
141.38314°
Altitude
443.88 km
Speed
7.648 km/s
True Right ascension
16h 36m 31s
True Declination
0° 00' 00"
Sunlit
Object was in full shadow at epoch
Visualization orbit readout
Latitude
42.22757°
Longitude
-149.23819°
Altitude
448.007 km
Speed
7.649 km/s
Apparent Right ascension
17h 27m 29s
Apparent Declination
5° 22' 25"
Sunlit
Object is in daylight
Visualization observer readout
Local Sidereal Time
01:28:51
Azimuth
294.664° NW
Elevation
-19.005°
Doppler factor
1
Orbital elements
Apogee altitude
447.063 km
Perigee altitude
444.955 km
Semi-major axis
6,824.146 km
Eccentricity
0.00015
Inclination
43.0006°
RAAN
249.1325°
Arg. of periapsis
267.1956°
True anomaly
Unknown
Mean anomaly
92.8724°
Eccentric anomaly
Unknown
Mean motion
3.85009 °/min
Orbital period
93.5 mins
BSTAR
0.0000043164
Loading maneuver chart data...
Loading SW <> Apogee altitude chart data...
Loading historical data...
Loading historical data...
Loading historical data...
Loading historical data...
Loading historical data...
Loading historical data...
Loading historical data...

STARLINK-33671 Visibility forecast

Observer location: undefined°, undefined°

Span
Click to sort rows by Start time (UTC) header in descending order
Start Az.
Max El. time (UTC)
Max El. Az.
Max El.
End time (UTC)
End Az.
5 mins2025-05-20 16:44:59.197Z262.529° W2025-05-20 16:47:59.197Z203.774° SW18.394°2025-05-20 16:49:59.197Z168.111° S
5 mins2025-05-21 11:10:59.197Z251.968° W2025-05-21 11:12:59.197Z58.671° ENE44.861°2025-05-21 11:15:59.197Z71.717° E
5 mins2025-05-21 12:48:59.197Z290.405° WNW2025-05-21 12:50:59.197Z348.889° N36.908°2025-05-21 12:53:59.197Z73.078° E
5 mins2025-05-21 14:26:59.197Z290.135° WNW2025-05-21 14:28:59.197Z306.746° NW42.288°2025-05-21 14:31:59.197Z103.837° ESE
4 mins2025-05-21 16:05:59.197Z245.944° WSW2025-05-21 16:06:59.197Z220.541° SW22.556°2025-05-21 16:09:59.197Z157.938° S
|